Location: Montbazon
(47.2835°N, 0.6999°E)
Time: 18:06:13
(UTC+00:00)

Meteor 2-21 - Pass Details

Date: 08 November 2025
Orbit: 933 x 966 km, 82.5° (Epoch: 10 December)

Event Time Altitude Azimuth Distance (km) Brightness Sun altitude
Rises 04:50:15 0° 196° (SSW) 3,610 7.3 -20.7°
Reaches altitude 10° 04:52:45 10° 199° (SSW) 2,664 6.6 -20.2°
Maximum altitude 04:58:49 67° 282° (WNW) 1,022 4.3 -19.2°
Drops below altitude 10° 05:04:52 10° 5° (N) 2,662 6.8 -18.2°
Sets 05:07:23 0° 8° (N) 3,607 7.5 -17.8°
